GW1987 Weather Reports


Display with metric or nautical units.
time (UTC)temp
F
wind
direction
speed
MPH
gust
MPH
rain 1hr
in
rain 24hr
in
rain mn
in
humidity
%
barometer
mb
20260508221539 74 360 24.0 30.0 0.00 0.00 0.00 9 920.7
20260508221012 74 360 19.0 30.0 0.00 0.00 0.00 10 920.7
20260508220514 73 360 22.0 30.0 0.00 0.00 0.00 11 920.6
20260508220043 74 360 18.0 28.0 0.00 0.00 0.00 10 920.8
20260508215516 74 360 22.0 33.0 0.00 0.00 0.00 11 920.8
20260508215014 73 360 23.0 33.0 0.00 0.00 0.00 11 920.9
20260508214554 73 360 20.0 25.0 0.00 0.00 0.00 10 920.8
20260508214013 73 360 19.0 28.0 0.00 0.00 0.00 10 920.9
20260508213516 74 360 19.0 29.0 0.00 0.00 0.00 10 921.0
20260508213046 74 360 19.0 34.0 0.00 0.00 0.00 10 921.0
20260508212516 74 360 26.0 34.0 0.00 0.00 0.00 10 920.8
20260508212024 74 360 19.0 30.0 0.00 0.00 0.00 10 921.2
20260508211538 75 360 22.0 30.0 0.00 0.00 0.00 10 921.1
20260508211020 74 360 18.0 30.0 0.00 0.00 0.00 10 921.0
20260508210518 73 360 21.0 32.0 0.00 0.00 0.00 10 921.0
20260508210042 73 360 21.0 32.0 0.00 0.00 0.00 10 921.1
20260508205519 75 360 25.0 40.0 0.00 0.00 0.00 8 921.2
20260508205018 74 360 19.0 34.0 0.00 0.00 0.00 9 921.2
20260508204541 74 360 22.0 34.0 0.00 0.00 0.00 10 921.3
20260508204017 74 360 25.0 32.0 0.00 0.00 0.00 9 920.9
20260508203517 74 360 19.0 26.0 0.00 0.00 0.00 11 921.3
20260508203057 74 360 16.0 32.0 0.00 0.00 0.00 10 921.4
20260508202517 74 360 23.0 32.0 0.00 0.00 0.00 10 921.4
20260508202015 73 360 16.0 25.0 0.00 0.00 0.00 11 921.3
20260508201555 73 360 8.0 30.0 0.00 0.00 0.00 11 921.4
20260508201018 74 360 23.0 38.0 0.00 0.00 0.00 10 921.4
20260508200520 74 360 27.0 38.0 0.00 0.00 0.00 9 921.2
20260508200049 73 360 19.0 28.0 0.00 0.00 0.00 11 921.3
20260508195517 73 360 16.0 30.0 0.00 0.00 0.00 11 921.4
20260508195016 73 360 20.0 26.0 0.00 0.00 0.00 12 921.4
20260508194549 73 360 17.0 26.0 0.00 0.00 0.00 12 921.4
20260508194017 73 360 20.0 27.0 0.00 0.00 0.00 12 921.5
20260508193519 72 360 15.0 30.0 0.00 0.00 0.00 11 921.6
20260508193053 72 360 19.0 34.0 0.00 0.00 0.00 9 921.5
20260508192515 72 360 26.0 34.0 0.00 0.00 0.00 9 921.3
20260508192018 71 360 16.0 31.0 0.00 0.00 0.00 11 921.6
20260508191550 72 360 27.0 31.0 0.00 0.00 0.00 10 921.3
20260508191017 72 360 16.0 26.0 0.00 0.00 0.00 9 921.7
20260508190518 72 360 20.0 29.0 0.00 0.00 0.00 10 921.7
20260508190052 72 360 12.0 29.0 0.00 0.00 0.00 11 922.1
20260508185520 71 360 15.0 29.0 0.00 0.00 0.00 12 922.1
20260508185016 71 360 15.0 34.0 0.00 0.00 0.00 11 922.1
20260508184547 71 360 19.0 34.0 0.00 0.00 0.00 12 922.0
20260508184018 72 360 19.0 26.0 0.00 0.00 0.00 11 921.9
20260508183516 71 360 16.0 25.0 0.00 0.00 0.00 16 922.2
20260508183053 71 360 15.0 24.0 0.00 0.00 0.00 14 922.1
20260508182516 71 360 18.0 27.0 0.00 0.00 0.00 18 922.0
20260508182024 71 360 17.0 27.0 0.00 0.00 0.00 16 922.2
20260508181609 70 360 10.0 24.0 0.00 0.00 0.00 16 922.3
20260508181019 70 360 19.0 29.0 0.00 0.00 0.00 15 922.3
20260508180517 70 360 20.0 29.0 0.00 0.00 0.00 17 922.2
20260508180104 71 360 15.0 25.0 0.00 0.00 0.00 16 922.3
20260508175517 70 360 15.0 25.0 0.00 0.00 0.00 18 922.4
20260508175020 70 360 18.0 28.0 0.00 0.00 0.00 16 922.5
20260508174546 70 360 22.0 28.0 0.00 0.00 0.00 14 922.3
20260508174025 70 360 19.0 31.0 0.00 0.00 0.00 18 922.3
20260508173519 70 360 20.0 26.0 0.00 0.00 0.00 15 922.4
20260508173052 70 360 18.0 24.0 0.00 0.00 0.00 10 922.4
20260508172519 69 360 19.0 28.0 0.00 0.00 0.00 12 922.5
20260508172022 69 360 16.0 28.0 0.00 0.00 0.00 16 922.5
20260508171550 69 360 15.0 25.0 0.00 0.00 0.00 18 922.7
20260508171018 69 360 21.0 25.0 0.00 0.00 0.00 16 922.6
20260508170522 69 360 14.0 24.0 0.00 0.00 0.00 18 922.6
20260508170057 70 360 14.0 26.0 0.00 0.00 0.00 18 922.7
20260508165518 69 360 14.0 26.0 0.00 0.00 0.00 19 922.6
20260508165026 69 360 12.0 23.0 0.00 0.00 0.00 17 922.8
20260508164556 68 360 14.0 23.0 0.00 0.00 0.00 22 922.8
20260508164020 68 360 18.0 23.0 0.00 0.00 0.00 24 922.7
20260508163520 68 360 11.0 21.0 0.00 0.00 0.00 20 922.5
20260508163043 68 360 14.0 21.0 0.00 0.00 0.00 18 922.5
20260508162517 68 360 13.0 19.0 0.00 0.00 0.00 20 922.6
20260508162022 67 360 13.0 27.0 0.00 0.00 0.00 19 922.7
20260508161547 67 360 14.0 27.0 0.00 0.00 0.00 24 922.5
20260508161023 67 360 14.0 22.0 0.00 0.00 0.00 24 922.7
20260508160518 66 360 15.0 21.0 0.00 0.00 0.00 24 922.8
20260508160055 66 360 10.0 16.0 0.00 0.00 0.00 28 923.0
20260508155523 65 360 9.0 18.0 0.00 0.00 0.00 30 923.0
20260508155018 65 360 10.0 18.0 0.00 0.00 0.00 29 923.0
20260508154556 64 360 14.0 18.0 0.00 0.00 0.00 29 923.0
20260508154022 64 360 10.0 16.0 0.00 0.00 0.00 35 923.1
20260508153518 64 360 12.0 17.0 0.00 0.00 0.00 34 923.1
20260508153050 64 360 11.0 16.0 0.00 0.00 0.00 36 923.0
20260508152520 63 360 12.0 16.0 0.00 0.00 0.00 37 922.9
20260508152021 62 360 11.0 17.0 0.00 0.00 0.00 39 923.0
20260508151550 62 360 12.0 16.0 0.00 0.00 0.00 39 923.0
20260508151020 62 360 13.0 16.0 0.00 0.00 0.00 38 923.1
20260508150525 62 360 12.0 16.0 0.00 0.00 0.00 38 923.1
20260508150052 61 360 13.0 16.0 0.00 0.00 0.00 39 923.0
20260508145520 61 360 13.0 16.0 0.00 0.00 0.00 39 923.1
20260508145020 60 360 11.0 14.0 0.00 0.00 0.00 42 923.1
20260508144551 59 360 10.0 14.0 0.00 0.00 0.00 44 923.1
20260508144022 59 360 10.0 13.0 0.00 0.00 0.00 44 923.2
20260508143521 59 360 9.0 13.0 0.00 0.00 0.00 44 923.0
20260508143054 59 360 9.0 13.0 0.00 0.00 0.00 44 923.0
20260508142520 58 360 10.0 13.0 0.00 0.00 0.00 45 923.1
20260508142021 58 360 9.0 12.0 0.00 0.00 0.00 46 923.0
20260508141558 58 360 10.0 13.0 0.00 0.00 0.00 46 923.4
20260508141020 57 360 10.0 13.0 0.00 0.00 0.00 47 923.2
20260508140520 56 360 9.0 11.0 0.00 0.00 0.00 50 923.3
20260508140106 54 360 7.0 14.0 0.00 0.00 0.00 54 923.1
20260508135523 53 360 10.0 14.0 0.00 0.00 0.00 55 923.4
20260508135020 51 360 10.0 13.0 0.00 0.00 0.00 59 923.4
20260508134549 49 360 1.0 4.0 0.00 0.00 0.00 59 923.4
20260508134020 49 360 0.0 5.0 0.00 0.00 0.00 59 923.4
20260508133523 48 360 2.0 5.0 0.00 0.00 0.00 60 923.5
20260508133051 48 360 3.0 5.0 0.00 0.00 0.00 61 923.4
20260508132523 48 360 2.0 5.0 0.00 0.00 0.00 61 923.5
20260508132020 47 360 3.0 5.0 0.00 0.00 0.00 61 923.4
20260508131558 47 360 3.0 6.0 0.00 0.00 0.00 62 923.4
20260508131023 47 360 4.0 6.0 0.00 0.00 0.00 62 923.4
20260508130520 46 360 3.0 4.0 0.00 0.00 0.00 63 923.4
20260508130055 46 360 2.0 3.0 0.00 0.00 0.00 63 923.4
20260508125523 45 360 2.0 4.0 0.00 0.00 0.00 62 923.5
20260508125015 45 360 2.0 4.0 0.00 0.00 0.00 62 923.4
20260508124531 45 360 2.0 3.0 0.00 0.00 0.00 62 923.5
20260508124012 45 360 1.0 3.0 0.00 0.00 0.00 62 923.4
20260508123511 45 360 1.0 3.0 0.00 0.00 0.00 62 923.5
20260508123034 46 360 1.0 3.0 0.00 0.00 0.00 62 923.4
20260508122513 46 360 2.0 3.0 0.00 0.00 0.00 62 923.4
20260508122014 45 360 0.0 2.0 0.00 0.00 0.00 62 923.4
20260508121533 45 360 0.0 2.0 0.00 0.00 0.00 63 923.3
20260508121010 45 360 0.0 4.0 0.00 0.00 0.00 63 923.4
20260508120514 45 360 2.0 4.0 0.00 0.00 0.00 64 923.4
20260508120039 44 360 3.0 4.0 0.00 0.00 0.00 64 923.3
20260508115518 44 360 3.0 4.0 0.00 0.00 0.00 64 923.3
20260508115011 44 360 3.0 6.0 0.00 0.00 0.00 63 923.5
20260508114535 45 360 4.0 9.0 0.00 0.00 0.00 63 923.4
20260508114013 45 360 5.0 9.0 0.00 0.00 0.00 64 923.4
20260508113511 45 360 7.0 9.0 0.00 0.00 0.00 64 923.4
20260508113030 45 360 6.0 9.0 0.00 0.00 0.00 64 923.5
20260508112514 45 360 7.0 9.0 0.00 0.00 0.00 64 923.4
20260508112010 45 360 5.0 9.0 0.00 0.00 0.00 63 923.5
20260508111549 45 360 6.0 9.0 0.00 0.00 0.00 64 923.5
20260508111014 44 360 7.0 9.0 0.00 0.00 0.00 65 923.4
20260508110517 44 360 2.0 6.0 0.00 0.00 0.00 63 923.5
20260508110031 44 360 2.0 8.0 0.00 0.00 0.00 63 923.5
20260508105512 44 360 5.0 9.0 0.00 0.00 0.00 64 923.5
20260508105012 44 360 7.0 9.0 0.00 0.00 0.00 64 923.4
20260508104531 44 360 6.0 8.0 0.00 0.00 0.00 64 923.4
20260508104012 45 360 4.0 6.0 0.00 0.00 0.00 62 923.5
20260508103511 45 360 4.0 8.0 0.00 0.00 0.00 63 923.4
20260508103034 45 360 6.0 9.0 0.00 0.00 0.00 62 923.4
20260508102511 45 360 7.0 9.0 0.00 0.00 0.00 63 923.5
20260508102010 45 360 7.0 9.0 0.00 0.00 0.00 63 923.7
20260508101540 45 360 6.0 8.0 0.00 0.00 0.00 63 923.6
20260508101011 45 360 5.0 8.0 0.00 0.00 0.00 63 923.6
20260508100511 45 360 4.0 9.0 0.00 0.00 0.00 63 923.6
20260508100029 45 360 4.0 9.0 0.00 0.00 0.00 63 923.6
20260508095512 45 360 5.0 8.0 0.00 0.00 0.00 63 923.6
20260508095015 45 360 6.0 8.0 0.00 0.00 0.00 62 923.6
20260508094531 45 360 5.0 8.0 0.00 0.00 0.00 62 923.6
20260508094010 46 360 5.0 9.0 0.00 0.00 0.00 61 923.6
20260508093514 46 360 6.0 10.0 0.00 0.00 0.00 62 923.6
20260508093037 46 360 7.0 10.0 0.00 0.00 0.00 62 923.4
20260508092511 46 360 8.0 11.0 0.00 0.00 0.00 62 923.4
20260508092012 46 360 8.0 12.0 0.00 0.00 0.00 62 923.5
20260508091533 46 360 8.0 12.0 0.00 0.00 0.00 61 923.6
20260508091012 47 360 9.0 12.0 0.00 0.00 0.00 61 923.5
20260508090510 47 360 9.0 13.0 0.00 0.00 0.00 60 923.8
20260508090038 48 360 10.0 14.0 0.00 0.00 0.00 60 923.7
20260508085511 48 360 11.0 15.0 0.00 0.00 0.00 60 923.7
20260508085013 48 360 11.0 15.0 0.00 0.00 0.00 60 923.7
20260508084535 47 360 10.0 15.0 0.00 0.00 0.00 60 923.7
20260508084016 48 360 12.0 15.0 0.00 0.00 0.00 59 923.6
20260508083511 48 360 10.0 13.0 0.00 0.00 0.00 59 923.8
20260508083036 48 360 10.0 14.0 0.00 0.00 0.00 59 923.9
20260508082512 48 360 10.0 15.0 0.00 0.00 0.00 59 923.8
20260508082014 48 360 11.0 15.0 0.00 0.00 0.00 59 923.8
20260508081533 48 360 11.0 14.0 0.00 0.00 0.00 60 923.8
20260508081014 48 360 11.0 15.0 0.00 0.00 0.00 59 923.8
20260508080512 48 360 12.0 15.0 0.00 0.00 0.00 59 923.8
20260508080035 48 360 11.0 16.0 0.00 0.00 0.00 59 923.8
20260508075512 48 360 12.0 16.0 0.00 0.00 0.00 59 923.9
20260508075014 48 360 12.0 15.0 0.00 0.00 0.00 60 924.0
20260508074534 47 360 9.0 13.0 0.00 0.00 0.00 61 924.1
20260508074012 47 360 9.0 11.0 0.00 0.00 0.00 61 924.1
20260508073512 47 360 8.0 12.0 0.00 0.00 0.00 60 924.0
20260508073036 47 360 9.0 12.0 0.00 0.00 0.00 60 924.2
20260508072512 47 360 8.0 10.0 0.00 0.00 0.00 60 924.1
20260508072013 48 360 7.0 10.0 0.00 0.00 0.00 59 924.1
20260508071535 48 360 7.0 11.0 0.00 0.00 0.00 59 924.2
20260508071017 48 360 8.0 13.0 0.00 0.00 0.00 58 924.2
20260508070515 49 360 10.0 14.0 0.00 0.00 0.00 58 924.2
20260508070040 49 360 9.0 16.0 0.00 0.00 0.00 57 924.1
20260508065512 50 360 12.0 16.0 0.00 0.00 0.00 56 924.2
20260508065011 50 360 12.0 17.0 0.00 0.00 0.00 56 924.1
20260508064549 50 360 11.0 15.0 0.00 0.00 0.00 56 924.1
20260508064011 50 360 7.0 13.0 0.00 0.00 0.00 55 924.0
20260508063511 50 360 10.0 15.0 0.00 0.00 0.00 55 924.1
20260508063035 50 360 11.0 15.0 0.00 0.00 0.00 56 924.1
20260508062516 50 360 10.0 13.0 0.00 0.00 0.00 56 924.0
20260508062010 50 360 10.0 14.0 0.00 0.00 0.00 55 924.1
20260508061538 50 360 10.0 14.0 0.00 0.00 0.00 55 924.1
20260508061021 50 360 9.0 12.0 0.00 0.00 0.00 54 924.3
20260508060513 50 360 9.0 13.0 0.00 0.00 0.00 53 924.1
20260508060038 51 360 9.0 13.0 0.00 0.00 0.00 53 924.2
20260508055513 51 360 8.0 16.0 0.00 0.00 0.00 51 924.1
20260508055012 52 360 10.0 16.0 0.00 0.00 0.00 51 924.1
20260508054539 52 360 12.0 19.0 0.00 0.00 0.00 50 924.2
20260508054012 53 360 15.0 19.0 0.00 0.00 0.00 49 924.1
20260508053513 52 360 11.0 15.0 0.00 0.00 0.00 48 924.2
20260508053039 51 360 6.0 9.0 0.00 0.00 0.00 47 924.2
20260508052513 51 360 6.0 9.0 0.00 0.00 0.00 47 924.3
20260508052015 52 360 6.0 10.0 0.00 0.00 0.00 46 924.1
20260508051539 53 360 7.0 9.0 0.00 0.00 0.00 45 924.1
20260508051014 53 360 5.0 9.0 0.00 0.00 0.00 45 924.0
20260508050512 53 360 6.0 10.0 0.00 0.00 0.00 45 923.9
20260508050039 53 360 8.0 10.0 0.00 0.00 0.00 45 924.0
20260508045513 53 360 6.0 10.0 0.00 0.00 0.00 44 924.0
20260508045013 54 360 5.0 10.0 0.00 0.00 0.00 44 924.0
20260508044537 54 360 6.0 11.0 0.00 0.00 0.00 44 923.9
20260508044013 54 360 6.0 11.0 0.00 0.00 0.00 42 924.0
20260508043514 54 360 6.0 10.0 0.00 0.00 0.00 42 924.1
20260508043042 54 360 8.0 10.0 0.00 0.00 0.00 42 924.0
20260508042512 55 360 6.0 9.0 0.00 0.00 0.00 41 923.5
20260508042011 55 360 5.0 11.0 0.00 0.00 0.00 40 923.3
20260508041536 56 360 9.0 13.0 0.00 0.00 0.00 39 923.4
20260508041014 56 360 11.0 13.0 0.00 0.00 0.00 39 923.6
20260508040511 57 360 9.0 16.0 0.00 0.00 0.00 39 923.7
20260508040044 57 360 11.0 21.0 0.00 0.00 0.00 39 923.7
20260508035511 58 360 15.0 21.0 0.00 0.00 0.00 39 923.8
20260508035015 59 360 11.0 14.0 0.00 0.00 0.00 32 923.8
20260508034539 59 360 9.0 12.0 0.00 0.00 0.00 32 923.5
20260508034015 59 360 7.0 13.0 0.00 0.00 0.00 32 923.5
20260508033512 59 360 10.0 13.0 0.00 0.00 0.00 33 923.4
20260508033039 58 360 10.0 25.0 0.00 0.00 0.00 35 923.8
20260508032515 58 360 15.0 25.0 0.00 0.00 0.00 36 923.9
20260508032011 58 360 17.0 33.0 0.00 0.00 0.00 36 923.6
20260508031539 58 360 22.0 33.0 0.00 0.00 0.00 36 923.2
20260508031014 58 360 24.0 38.0 0.00 0.00 0.00 36 923.1
20260508030511 59 360 30.0 38.0 0.00 0.00 0.00 35 923.5
20260508030035 59 360 20.0 27.0 0.00 0.00 0.00 33 923.5
20260508025514 59 360 12.0 16.0 0.00 0.00 0.00 33 923.5
20260508025015 59 360 12.0 15.0 0.00 0.00 0.00 33 923.6
20260508024547 59 360 11.0 15.0 0.00 0.00 0.00 33 923.4
20260508024014 58 360 10.0 14.0 0.00 0.00 0.00 34 923.4
20260508023515 58 360 10.0 14.0 0.00 0.00 0.00 35 923.4
20260508023039 58 360 7.0 10.0 0.00 0.00 0.00 35 923.3
20260508022512 58 360 6.0 12.0 0.00 0.00 0.00 35 923.2
20260508022017 58 360 7.0 12.0 0.00 0.00 0.00 35 922.9
20260508021541 58 360 9.0 15.0 0.00 0.00 0.00 35 923.1
20260508021019 58 360 10.0 16.0 0.00 0.00 0.00 35 923.0
20260508020516 59 360 11.0 20.0 0.00 0.00 0.00 34 923.1
20260508020044 59 360 15.0 20.0 0.00 0.00 0.00 34 923.0
20260508015514 60 360 14.0 20.0 0.00 0.00 0.00 32 922.8
20260508015011 60 360 14.0 19.0 0.00 0.00 0.00 31 923.0
20260508014551 61 360 14.0 19.0 0.00 0.00 0.00 30 922.9
20260508014014 61 360 12.0 17.0 0.00 0.00 0.00 32 922.9
20260508013514 60 360 11.0 18.0 0.00 0.00 0.00 33 922.8
20260508013044 60 360 13.0 21.0 0.00 0.00 0.00 34 922.7
20260508012518 61 360 16.0 23.0 0.00 0.00 0.00 34 922.8
20260508012015 61 360 18.0 23.0 0.00 0.00 0.00 33 922.8
20260508011543 62 360 14.0 18.0 0.00 0.00 0.00 31 922.7
20260508011011 62 360 12.0 15.0 0.00 0.00 0.00 30 922.4
20260508010515 62 360 12.0 15.0 0.00 0.00 0.00 30 922.4
20260508010049 62 360 11.0 16.0 0.00 0.00 0.00 31 922.4
20260508005517 62 360 11.0 19.0 0.00 0.00 0.00 31 922.4
20260508005017 62 360 14.0 19.0 0.00 0.00 0.00 31 922.5
20260508004545 62 360 13.0 20.0 0.00 0.00 0.00 30 922.5
20260508004015 62 360 14.0 21.0 0.00 0.00 0.00 30 922.8
20260508003515 63 360 16.0 23.0 0.00 0.00 0.00 29 922.9
20260508003057 64 360 17.0 23.0 0.00 0.00 0.00 28 922.7
20260508002517 65 360 10.0 18.0 0.00 0.00 0.00 29 922.6
20260508002019 65 360 12.0 17.0 0.00 0.00 0.00 29 922.5
20260508001547 65 360 10.0 17.0 0.00 0.00 0.00 29 922.5
20260508001016 65 360 11.0 15.0 0.00 0.00 0.00 30 922.6
20260508000513 65 360 10.0 16.0 0.00 0.00 0.00 30 922.7
20260508000046 65 360 11.0 15.0 0.00 0.00 0.00 29 922.8
20260507235517 65 360 12.0 15.0 0.00 0.00 0.00 28 922.6
20260507235014 65 360 11.0 19.0 0.00 0.00 0.00 28 922.5
20260507234545 66 360 14.0 19.0 0.00 0.00 0.00 28 922.5
20260507234013 66 360 13.0 18.0 0.00 0.00 0.00 27 922.6
20260507233516 66 360 12.0 17.0 0.00 0.00 0.00 27 922.5
20260507233045 66 360 12.0 18.0 0.00 0.00 0.00 28 922.5
20260507232518 65 360 12.0 19.0 0.00 0.00 0.00 28 922.5
20260507232015 66 360 14.0 19.0 0.00 0.00 0.00 28 922.5
20260507231549 65 360 13.0 18.0 0.00 0.00 0.00 28 922.6
20260507231019 65 360 14.0 21.0 0.00 0.00 0.00 28 922.6
20260507230516 66 360 16.0 23.0 0.00 0.00 0.00 27 922.7
20260507230050 67 360 15.0 23.0 0.00 0.00 0.00 28 922.5
20260507225521 66 360 16.0 22.0 0.00 0.00 0.00 30 922.6
20260507225016 65 360 13.0 23.0 0.00 0.00 0.00 31 922.7
20260507224602 64 360 14.0 23.0 0.00 0.00 0.00 33 922.8
20260507224015 63 360 18.0 23.0 0.00 0.00 0.00 33 922.5
20260507223517 63 360 18.0 24.0 0.00 0.00 0.00 33 922.7
20260507223058 64 360 20.0 26.0 0.00 0.00 0.00 32 922.7
20260507222516 65 360 20.0 26.0 0.00 0.00 0.00 30 922.7
20260507222014 65 360 20.0 26.0 0.00 0.00 0.00 31 922.7